| time (UTC) | temp C | wind direction | speed KPH | gust KPH | rain 1hr cm | rain 24hr cm | rain mn cm | humidity % | barometer mb |
| 20260505151540 | 23 | 200 | 4.8 | 24.1 | 0.00 | 0.08 | 0.08 | 45 | 1005.8 |
| 20260505124547 | 13 | 212 | 3.2 | 14.5 | 0.08 | 0.08 | 0.08 | 81 | 1006.6 |
| 20260505123038 | 13 | 207 | 4.8 | 14.5 | 0.08 | 0.08 | 0.08 | 80 | 1006.7 |
| 20260505121537 | 15 | 171 | 3.2 | 19.3 | 0.05 | 0.05 | 0.05 | 73 | 1006.7 |
| 20260505120054 | 16 | 244 | 4.8 | 14.5 | 0.00 | 0.00 | 0.00 | 64 | 1006.9 |
| 20260505114540 | 15 | 193 | 4.8 | 19.3 | 0.00 | 0.00 | 0.00 | 66 | 1006.7 |
| 20260505113040 | 15 | 275 | 3.2 | 9.7 | 0.00 | 0.00 | 0.00 | 68 | 1006.8 |
| 20260505111534 | 14 | 261 | 3.2 | 11.3 | 0.00 | 0.00 | 0.00 | 68 | 1006.8 |
| 20260505101536 | 12 | 208 | 3.2 | 8.0 | 0.00 | 0.00 | 0.00 | 71 | 1006.0 |
| 20260505100043 | 12 | 225 | 3.2 | 8.0 | 0.00 | 0.00 | 0.00 | 69 | 1005.7 |
| 20260505094538 | 13 | 225 | 3.2 | 9.7 | 0.00 | 0.00 | 0.00 | 69 | 1005.6 |
| 20260505093042 | 13 | 235 | 3.2 | 11.3 | 0.00 | 0.00 | 0.00 | 69 | 1005.2 |
| 20260505091541 | 12 | 193 | 3.2 | 11.3 | 0.00 | 0.00 | 0.00 | 69 | 1005.4 |
| 20260505090043 | 12 | 203 | 3.2 | 11.3 | 0.00 | 0.00 | 0.00 | 70 | 1005.3 |
| 20260505084547 | 12 | 246 | 3.2 | 9.7 | 0.00 | 0.00 | 0.00 | 72 | 1005.2 |
| 20260505083047 | 12 | 221 | 1.6 | 8.0 | 0.00 | 0.00 | 0.00 | 73 | 1005.2 |
| 20260505081533 | 12 | 221 | 3.2 | 8.0 | 0.00 | 0.00 | 0.00 | 73 | 1005.5 |
| 20260505080042 | 13 | 198 | 3.2 | 11.3 | 0.00 | 0.00 | 0.00 | 65 | 1005.7 |
| 20260505074540 | 14 | 215 | 3.2 | 14.5 | 0.00 | 0.00 | 0.00 | 63 | 1005.6 |
| 20260505073040 | 14 | 0 | 3.2 | 12.9 | 0.00 | 0.00 | 0.00 | 61 | 1005.6 |
| 20260505071536 | 14 | 234 | 3.2 | 14.5 | 0.00 | 0.00 | 0.00 | 60 | 1005.5 |
| 20260505070047 | 14 | 232 | 4.8 | 16.1 | 0.00 | 0.00 | 0.00 | 59 | 1005.6 |
| 20260505064548 | 14 | 221 | 4.8 | 17.7 | 0.00 | 0.00 | 0.00 | 59 | 1005.6 |
| 20260505063040 | 13 | 242 | 4.8 | 16.1 | 0.00 | 0.00 | 0.00 | 60 | 1005.6 |
| 20260505061538 | 13 | 202 | 3.2 | 14.5 | 0.00 | 0.00 | 0.00 | 60 | 1005.6 |
| 20260505060045 | 13 | 226 | 3.2 | 14.5 | 0.00 | 0.00 | 0.00 | 60 | 1005.6 |
| 20260505054545 | 13 | 202 | 3.2 | 11.3 | 0.00 | 0.00 | 0.00 | 60 | 1005.5 |
| 20260505053107 | 13 | 205 | 3.2 | 9.7 | 0.00 | 0.00 | 0.00 | 59 | 1005.8 |
| 20260505051535 | 13 | 219 | 3.2 | 17.7 | 0.00 | 0.00 | 0.00 | 58 | 1006.0 |
| 20260505041543 | 14 | 239 | 3.2 | 14.5 | 0.00 | 0.00 | 0.00 | 57 | 1005.8 |
| 20260505040040 | 14 | 148 | 3.2 | 16.1 | 0.00 | 0.00 | 0.00 | 56 | 1005.7 |
| 20260505034545 | 15 | 230 | 3.2 | 12.9 | 0.00 | 0.00 | 0.00 | 55 | 1005.6 |
| 20260505033047 | 15 | 198 | 3.2 | 17.7 | 0.00 | 0.00 | 0.00 | 54 | 1005.4 |
| 20260505031541 | 15 | 229 | 4.8 | 16.1 | 0.00 | 0.00 | 0.00 | 54 | 1005.7 |
| 20260505030040 | 15 | 184 | 4.8 | 16.1 | 0.00 | 0.00 | 0.00 | 52 | 1005.7 |
| 20260505024535 | 15 | 160 | 4.8 | 14.5 | 0.00 | 0.00 | 0.00 | 53 | 1005.6 |
| 20260505023035 | 15 | 230 | 4.8 | 16.1 | 0.00 | 0.00 | 0.00 | 52 | 1005.6 |
| 20260505021542 | 15 | 226 | 4.8 | 17.7 | 0.00 | 0.00 | 0.00 | 51 | 1005.9 |
| 20260505020040 | 16 | 202 | 4.8 | 14.5 | 0.00 | 0.00 | 0.00 | 51 | 1005.8 |
| 20260505014539 | 16 | 201 | 3.2 | 19.3 | 0.00 | 0.00 | 0.00 | 50 | 1005.7 |
| 20260505013045 | 16 | 250 | 4.8 | 16.1 | 0.00 | 0.00 | 0.00 | 50 | 1005.6 |
| 20260505011600 | 16 | 225 | 3.2 | 11.3 | 0.00 | 0.00 | 0.00 | 50 | 1005.7 |
| 20260505010040 | 16 | 200 | 3.2 | 6.4 | 0.00 | 0.00 | 0.00 | 49 | 1005.5 |
| 20260505004541 | 16 | 185 | 1.6 | 11.3 | 0.00 | 0.00 | 0.00 | 49 | 1005.3 |
| 20260505003036 | 16 | 212 | 1.6 | 6.4 | 0.00 | 0.00 | 0.00 | 48 | 1005.3 |
| 20260505001549 | 16 | 221 | 1.6 | 4.8 | 0.00 | 0.00 | 0.00 | 48 | 1005.3 |
| 20260505000058 | 17 | 209 | 1.6 | 8.0 | 0.00 | 0.00 | 0.00 | 46 | 1005.1 |
| 20260504234541 | 17 | 207 | 1.6 | 6.4 | 0.00 | 0.00 | 0.00 | 44 | 1005.0 |
| 20260504233055 | 17 | 217 | 3.2 | 9.7 | 0.00 | 0.00 | 0.00 | 42 | 1004.7 |
| 20260504231536 | 18 | 299 | 3.2 | 16.1 | 0.00 | 0.00 | 0.00 | 42 | 1004.7 |
| 20260504230044 | 18 | 205 | 3.2 | 14.5 | 0.00 | 0.00 | 0.00 | 40 | 1004.8 |
| 20260504224544 | 19 | 174 | 3.2 | 17.7 | 0.00 | 0.00 | 0.00 | 38 | 1004.6 |
| 20260504223043 | 20 | 269 | 4.8 | 12.9 | 0.00 | 0.00 | 0.00 | 37 | 1004.7 |
| 20260504221542 | 20 | 219 | 4.8 | 12.9 | 0.00 | 0.00 | 0.00 | 37 | 1004.6 |
| 20260504220039 | 21 | 198 | 3.2 | 11.3 | 0.00 | 0.00 | 0.00 | 36 | 1004.6 |
| 20260504214544 | 21 | 193 | 4.8 | 16.1 | 0.00 | 0.00 | 0.00 | 36 | 1004.8 |
| 20260504213037 | 21 | 212 | 4.8 | 24.1 | 0.00 | 0.00 | 0.00 | 35 | 1004.7 |
| 20260504211543 | 21 | 255 | 4.8 | 20.9 | 0.00 | 0.00 | 0.00 | 36 | 1004.7 |
| 20260504210044 | 21 | 218 | 6.4 | 20.9 | 0.00 | 0.00 | 0.00 | 35 | 1004.9 |
| 20260504204538 | 21 | 193 | 4.8 | 27.4 | 0.00 | 0.00 | 0.00 | 37 | 1004.9 |
| 20260504203048 | 21 | 234 | 6.4 | 17.7 | 0.00 | 0.00 | 0.00 | 34 | 1005.1 |
| 20260504201545 | 21 | 235 | 6.4 | 25.7 | 0.00 | 0.00 | 0.00 | 36 | 1005.6 |
| 20260504200057 | 21 | 211 | 4.8 | 14.5 | 0.00 | 0.00 | 0.00 | 36 | 1005.5 |
| 20260504194558 | 21 | 73 | 4.8 | 20.9 | 0.00 | 0.00 | 0.00 | 36 | 1005.7 |
| 20260504193038 | 21 | 214 | 4.8 | 16.1 | 0.00 | 0.00 | 0.00 | 36 | 1005.7 |
| 20260504191542 | 20 | 294 | 6.4 | 20.9 | 0.00 | 0.00 | 0.00 | 36 | 1005.8 |
| 20260504190037 | 21 | 229 | 6.4 | 19.3 | 0.00 | 0.00 | 0.00 | 37 | 1005.8 |
| 20260504184542 | 21 | 171 | 4.8 | 19.3 | 0.00 | 0.00 | 0.00 | 37 | 1005.9 |
| 20260504183040 | 20 | 153 | 4.8 | 16.1 | 0.00 | 0.00 | 0.00 | 44 | 1006.0 |
| 20260504181539 | 18 | 248 | 6.4 | 19.3 | 0.00 | 0.00 | 0.00 | 40 | 1006.4 |
| 20260504180036 | 18 | 214 | 6.4 | 20.9 | 0.00 | 0.00 | 0.00 | 42 | 1006.2 |
| 20260504174542 | 19 | 207 | 8.0 | 25.7 | 0.00 | 0.00 | 0.00 | 40 | 1006.4 |
| 20260504173041 | 20 | 230 | 4.8 | 17.7 | 0.00 | 0.00 | 0.00 | 44 | 1006.4 |
| 20260504171547 | 19 | 301 | 4.8 | 19.3 | 0.00 | 0.00 | 0.00 | 41 | 1006.7 |